RYR137 LMML-LIPH

Flight info

Callsign RYR137
Flight time 1h 40m
Altitude 36000
Route GZO M622 SOPIR DCT ADEXI DCT ROTUN DCT GAVRA DCT PELEG DCT SUKOM M726 LUMAV M859 ROVIG
Aircraft B38M/M-SDE1FGHILORVWXY/HB1

Departure

Time 2026-04-28 08:22
Airport Malta International Airport (LMML)

Arrival

Time 2026-04-28 10:02
Airport Treviso Airport (LIPH)
Time Latitude Longitude Altitude Speed Heading
2026-04-28 07:54 35.85411 14.48518 267 ft 0 kts
2026-04-28 08:12 35.85388 14.48517 267 ft 4 kts
2026-04-28 08:12 35.85362 14.48515 268 ft 4 kts 345°
2026-04-28 08:13 35.85348 14.48525 268 ft 1 kts 313°
2026-04-28 08:13 35.85346 14.48527 268 ft 0 kts 313°
2026-04-28 08:18 35.85348 14.48525 268 ft 1 kts 313°
2026-04-28 08:19 35.85360 14.48510 268 ft 4 kts 313°
2026-04-28 08:19 35.85384 14.48479 268 ft 6 kts 313°
2026-04-28 08:19 35.85418 14.48434 268 ft 8 kts 313°
2026-04-28 08:19 35.85463 14.48377 268 ft 10 kts 315°
2026-04-28 08:20 35.85518 14.48310 268 ft 12 kts 315°
2026-04-28 08:20 35.85588 14.48233 267 ft 14 kts 344°
2026-04-28 08:20 35.85658 14.48192 265 ft 11 kts 301°
2026-04-28 08:20 35.85658 14.48102 267 ft 10 kts 265°
2026-04-28 08:21 35.85657 14.48015 269 ft 10 kts 270°
2026-04-28 08:21 35.85649 14.47934 271 ft 9 kts 235°
2026-04-28 08:21 35.85600 14.47937 272 ft 8 kts 127°
2026-04-28 08:21 35.85590 14.47951 272 ft 0 kts 133°
2026-04-28 08:22 35.85438 14.48146 270 ft 76 kts 133°
2026-04-28 08:22 35.84870 14.48851 264 ft 154 kts 135°
2026-04-28 08:22 35.83996 14.49917 659 ft 194 kts 133°
2026-04-28 08:22 35.83042 14.51014 1937 ft 182 kts 145°
2026-04-28 08:23 35.81772 14.51514 2671 ft 211 kts 180°
2026-04-28 08:23 35.80301 14.50856 3205 ft 245 kts 220°
2026-04-28 08:23 35.79292 14.49102 4023 ft 260 kts 242°
2026-04-28 08:23 35.78376 14.47154 5154 ft 260 kts 241°
2026-04-28 08:24 35.77451 14.45252 6379 ft 260 kts 241°
2026-04-28 08:24 35.76501 14.43319 7350 ft 266 kts 241°
2026-04-28 08:24 35.75539 14.41353 8377 ft 269 kts 244°
2026-04-28 08:24 35.74943 14.39173 9343 ft 270 kts 266°
2026-04-28 08:25 35.75129 14.36913 10270 ft 274 kts 288°
2026-04-28 08:25 35.76062 14.34789 10837 ft 293 kts 309°
2026-04-28 08:25 35.77715 14.33173 11288 ft 316 kts 332°
2026-04-28 08:26 35.81963 14.31073 12594 ft 338 kts 335°
2026-04-28 08:26 35.84156 14.30001 13492 ft 341 kts 335°
2026-04-28 08:26 35.86385 14.28920 14244 ft 346 kts 335°
2026-04-28 08:26 35.88636 14.27831 14989 ft 349 kts 335°
2026-04-28 08:27 35.90907 14.26733 15719 ft 353 kts 335°
2026-04-28 08:27 35.93211 14.25620 16429 ft 357 kts 336°
2026-04-28 08:27 35.95527 14.24498 17045 ft 363 kts 337°
2026-04-28 08:27 35.97872 14.23367 17596 ft 365 kts 335°
2026-04-28 08:28 36.00219 14.22230 18504 ft 363 kts 335°
2026-04-28 08:28 36.02585 14.21082 19045 ft 367 kts 335°
2026-04-28 08:28 36.04802 14.19539 19646 ft 365 kts 321°
2026-04-28 08:28 36.06888 14.17707 20212 ft 369 kts 322°
2026-04-28 08:29 36.08991 14.15867 20806 ft 371 kts 322°
2026-04-28 08:29 36.11100 14.14009 21385 ft 374 kts 322°
2026-04-28 08:29 36.13231 14.12124 21956 ft 377 kts 322°
2026-04-28 08:29 36.15340 14.10256 22533 ft 379 kts 322°
2026-04-28 08:30 36.17499 14.08343 23061 ft 383 kts 322°
2026-04-28 08:30 36.19676 14.06411 23604 ft 386 kts 322°
2026-04-28 08:30 36.21868 14.04464 24071 ft 388 kts 321°
2026-04-28 08:30 36.24064 14.02512 24542 ft 390 kts 321°
2026-04-28 08:31 36.26272 14.00549 25003 ft 392 kts 321°
2026-04-28 08:31 36.28495 13.98571 25447 ft 394 kts 321°
2026-04-28 08:31 36.30725 13.96585 25908 ft 395 kts 321°
2026-04-28 08:31 36.32967 13.94587 26362 ft 397 kts 321°
2026-04-28 08:32 36.35216 13.92581 26788 ft 399 kts 321°
2026-04-28 08:32 36.37477 13.90564 27219 ft 401 kts 321°
2026-04-28 08:32 36.39745 13.88538 27639 ft 403 kts 321°
2026-04-28 08:32 36.42029 13.86496 28051 ft 405 kts 320°
2026-04-28 08:33 36.44320 13.84447 28426 ft 408 kts 320°
2026-04-28 08:33 36.46600 13.82407 28782 ft 410 kts 320°
2026-04-28 08:33 36.48924 13.80326 29195 ft 412 kts 320°
2026-04-28 08:33 36.51252 13.78239 29575 ft 414 kts 320°
2026-04-28 08:34 36.53596 13.76136 29957 ft 416 kts 320°
2026-04-28 08:34 36.55954 13.74021 30300 ft 418 kts 320°
2026-04-28 08:34 36.58312 13.71902 30619 ft 419 kts 320°
2026-04-28 08:34 36.60685 13.69769 30948 ft 421 kts 320°
2026-04-28 08:35 36.63060 13.67633 31279 ft 422 kts 320°
2026-04-28 08:35 36.65439 13.65492 31693 ft 420 kts 320°
2026-04-28 08:35 36.67803 13.63362 32164 ft 418 kts 319°
2026-04-28 08:35 36.70155 13.61242 32635 ft 416 kts 320°
2026-04-28 08:36 36.72498 13.59126 33017 ft 416 kts 319°
2026-04-28 08:36 36.74809 13.57040 33453 ft 414 kts 319°
2026-04-28 08:36 36.77135 13.54937 33904 ft 412 kts 319°
2026-04-28 08:36 36.79451 13.52843 34310 ft 410 kts 319°
2026-04-28 08:37 36.81755 13.50758 34640 ft 409 kts 319°
2026-04-28 08:37 36.84060 13.48670 34948 ft 408 kts 319°
2026-04-28 08:37 36.86372 13.46575 35224 ft 409 kts 319°
2026-04-28 08:37 36.88673 13.44488 35520 ft 408 kts 319°
2026-04-28 08:38 36.90192 13.43108 35715 ft 408 kts 319°
2026-04-28 08:38 36.93241 13.40338 36046 ft 408 kts 319°
2026-04-28 08:38 36.95541 13.38247 36082 ft 408 kts 319°
2026-04-28 08:39 36.99352 13.34779 36079 ft 407 kts 319°
2026-04-28 08:39 37.03940 13.30596 36075 ft 408 kts 319°
2026-04-28 08:40 37.08540 13.26398 36073 ft 408 kts 319°
2026-04-28 08:40 37.13104 13.22226 36076 ft 408 kts 319°
2026-04-28 08:41 37.17688 13.18028 36073 ft 407 kts 319°
2026-04-28 08:41 37.22266 13.13830 36092 ft 407 kts 319°
2026-04-28 08:42 37.26828 13.09640 36074 ft 410 kts 319°
2026-04-28 08:42 37.31438 13.05401 36072 ft 410 kts 319°
2026-04-28 08:43 37.36625 13.02313 36072 ft 426 kts 343°
2026-04-28 08:43 37.42513 13.01038 36065 ft 430 kts 344°
2026-04-28 08:44 37.48397 12.99850 36085 ft 431 kts 345°
2026-04-28 08:44 37.54332 12.98692 36078 ft 432 kts 345°
2026-04-28 08:45 37.60284 12.97533 36070 ft 432 kts 345°
2026-04-28 08:45 37.66185 12.96382 36077 ft 432 kts 345°
2026-04-28 08:46 37.72124 12.95222 36073 ft 432 kts 345°
2026-04-28 08:46 37.78059 12.94061 36076 ft 432 kts 345°
2026-04-28 08:47 37.83999 12.92897 36079 ft 432 kts 345°
2026-04-28 08:47 37.89900 12.91739 36075 ft 431 kts 345°
2026-04-28 08:48 37.95848 12.90570 36089 ft 432 kts 345°
2026-04-28 08:48 38.01797 12.89398 36073 ft 433 kts 345°
2026-04-28 08:49 38.07765 12.88222 36070 ft 434 kts 345°
2026-04-28 08:49 38.13733 12.87043 36071 ft 434 kts 345°
2026-04-28 08:50 38.19705 12.85861 36096 ft 434 kts 346°
2026-04-28 08:50 38.25690 12.84675 36078 ft 436 kts 346°
2026-04-28 08:51 38.31705 12.83480 36073 ft 436 kts 346°
2026-04-28 08:51 38.37713 12.82286 36073 ft 436 kts 346°
2026-04-28 08:52 38.43685 12.81096 36082 ft 437 kts 346°
2026-04-28 08:52 38.49702 12.79895 36077 ft 438 kts 346°
2026-04-28 08:53 38.55722 12.78692 36079 ft 438 kts 346°
2026-04-28 08:53 38.61746 12.77486 36079 ft 438 kts 346°
2026-04-28 08:54 38.67772 12.76278 36085 ft 439 kts 346°
2026-04-28 08:54 38.73824 12.75062 36083 ft 440 kts 346°
2026-04-28 08:55 38.79836 12.73851 36078 ft 440 kts 346°
2026-04-28 08:55 38.85886 12.72632 36081 ft 440 kts 346°
2026-04-28 08:56 38.91936 12.71411 36087 ft 440 kts 346°
2026-04-28 08:56 38.98003 12.70183 36084 ft 441 kts 346°
2026-04-28 08:57 39.04060 12.68956 36082 ft 441 kts 346°
2026-04-28 08:57 39.10120 12.67726 36089 ft 441 kts 346°
2026-04-28 08:58 39.16154 12.66499 36086 ft 442 kts 347°
2026-04-28 08:58 39.22237 12.65260 36086 ft 442 kts 347°
2026-04-28 08:59 39.28319 12.64019 36089 ft 442 kts 347°
2026-04-28 08:59 39.34399 12.62776 36098 ft 442 kts 347°
2026-04-28 09:00 39.40440 12.61539 36087 ft 443 kts 347°
2026-04-28 09:00 39.46520 12.60292 36091 ft 443 kts 347°
2026-04-28 09:01 39.52609 12.59040 36092 ft 443 kts 347°
2026-04-28 09:01 39.58696 12.57788 36103 ft 443 kts 347°
2026-04-28 09:02 39.64803 12.56528 36091 ft 444 kts 347°
2026-04-28 09:02 39.70910 12.55266 36089 ft 444 kts 347°
2026-04-28 09:03 39.76978 12.54010 36087 ft 444 kts 347°
2026-04-28 09:03 39.83083 12.52744 36092 ft 444 kts 348°
2026-04-28 09:04 39.89193 12.51475 36088 ft 445 kts 348°
2026-04-28 09:04 39.95311 12.50202 36089 ft 445 kts 348°
2026-04-28 09:05 40.01425 12.48928 36090 ft 445 kts 348°
2026-04-28 09:05 40.07494 12.47660 36089 ft 444 kts 348°
2026-04-28 09:06 40.13611 12.46380 36089 ft 444 kts 348°
2026-04-28 09:06 40.19729 12.45098 36089 ft 444 kts 348°
2026-04-28 09:07 40.25839 12.43816 36097 ft 445 kts 348°
2026-04-28 09:07 40.31908 12.42538 36090 ft 444 kts 348°
2026-04-28 09:08 40.38024 12.41249 36085 ft 445 kts 348°
2026-04-28 09:08 40.44145 12.39957 36090 ft 444 kts 348°
2026-04-28 09:09 40.50214 12.38673 36092 ft 444 kts 348°
2026-04-28 09:09 40.56324 12.37379 36089 ft 444 kts 348°
2026-04-28 09:10 40.62440 12.36081 36088 ft 444 kts 348°
2026-04-28 09:10 40.68521 12.34788 36092 ft 444 kts 349°
2026-04-28 09:11 40.74626 12.33487 36086 ft 444 kts 349°
2026-04-28 09:11 40.80734 12.32183 36089 ft 444 kts 349°
2026-04-28 09:12 40.86840 12.30878 36089 ft 444 kts 349°
2026-04-28 09:12 40.93000 12.29894 36093 ft 445 kts 351°
2026-04-28 09:13 40.99108 12.28927 36089 ft 445 kts 351°
2026-04-28 09:13 41.05255 12.27946 36086 ft 445 kts 351°
2026-04-28 09:14 41.11409 12.26961 36086 ft 445 kts 351°
2026-04-28 09:14 41.17548 12.25977 36083 ft 444 kts 351°
2026-04-28 09:15 41.23687 12.24991 36086 ft 444 kts 351°
2026-04-28 09:15 41.29835 12.24001 36080 ft 444 kts 351°
2026-04-28 09:16 41.35978 12.23011 36085 ft 444 kts 351°
2026-04-28 09:16 41.42073 12.22026 36078 ft 444 kts 351°
2026-04-28 09:17 41.48215 12.21032 36075 ft 444 kts 351°
2026-04-28 09:17 41.54353 12.20037 36090 ft 444 kts 351°
2026-04-28 09:18 41.60488 12.19040 36091 ft 443 kts 351°
2026-04-28 09:18 41.66573 12.18049 36125 ft 443 kts 351°
2026-04-28 09:19 41.72705 12.17049 36162 ft 443 kts 351°
2026-04-28 09:19 41.78825 12.16049 36204 ft 443 kts 351°
2026-04-28 09:20 41.84946 12.15047 36236 ft 443 kts 351°
2026-04-28 09:20 41.91065 12.14043 36238 ft 442 kts 351°
2026-04-28 09:21 41.97180 12.13039 36250 ft 443 kts 351°
2026-04-28 09:21 42.03245 12.12040 36228 ft 441 kts 351°
2026-04-28 09:22 42.09348 12.11033 36183 ft 441 kts 351°
2026-04-28 09:22 42.15445 12.10025 36166 ft 441 kts 351°
2026-04-28 09:23 42.21539 12.09015 36073 ft 441 kts 351°
2026-04-28 09:23 42.27639 12.08003 36074 ft 441 kts 351°
2026-04-28 09:24 42.33708 12.06994 36077 ft 441 kts 351°
2026-04-28 09:24 42.39800 12.05978 36073 ft 441 kts 351°
2026-04-28 09:25 42.45900 12.04961 36079 ft 441 kts 351°
2026-04-28 09:25 42.51995 12.03941 36061 ft 442 kts 350°
2026-04-28 09:26 42.58113 12.02916 36063 ft 442 kts 350°
2026-04-28 09:26 42.64201 12.01893 36078 ft 442 kts 350°
2026-04-28 09:27 42.72334 12.00525 36067 ft 442 kts 350°
2026-04-28 09:27 42.78442 11.99494 36069 ft 442 kts 350°
2026-04-28 09:28 42.84548 11.98462 36069 ft 442 kts 349°
2026-04-28 09:28 42.90655 11.97428 36067 ft 442 kts 349°
2026-04-28 09:29 42.96764 11.96391 36077 ft 442 kts 349°
2026-04-28 09:29 43.02825 11.95360 36077 ft 441 kts 349°
2026-04-28 09:30 43.08906 11.94324 36067 ft 440 kts 349°
2026-04-28 09:30 43.14989 11.93286 36071 ft 440 kts 349°
2026-04-28 09:31 43.21070 11.92246 36084 ft 441 kts 349°
2026-04-28 09:31 43.27158 11.91202 36074 ft 440 kts 349°
2026-04-28 09:32 43.33249 11.90156 36075 ft 440 kts 349°
2026-04-28 09:32 43.39324 11.89110 36084 ft 440 kts 349°
2026-04-28 09:33 43.45367 11.88068 36082 ft 440 kts 349°
2026-04-28 09:33 43.51454 11.87016 36076 ft 439 kts 349°
2026-04-28 09:34 43.57527 11.85965 36077 ft 440 kts 349°
2026-04-28 09:34 43.63566 11.84917 36090 ft 439 kts 349°
2026-04-28 09:35 43.69641 11.83862 36070 ft 439 kts 349°
2026-04-28 09:35 43.75685 11.82809 36080 ft 439 kts 349°
2026-04-28 09:36 43.81771 11.81626 35169 ft 440 kts 348°
2026-04-28 09:36 43.84818 11.81027 34300 ft 444 kts 348°
2026-04-28 09:36 43.87843 11.80433 33543 ft 444 kts 348°
2026-04-28 09:37 43.90894 11.79832 32990 ft 439 kts 348°
2026-04-28 09:37 43.93900 11.79241 32522 ft 433 kts 348°
2026-04-28 09:37 43.96880 11.78654 32015 ft 428 kts 348°
2026-04-28 09:37 43.99790 11.78081 31445 ft 426 kts 348°
2026-04-28 09:38 44.02717 11.77503 30917 ft 423 kts 348°
2026-04-28 09:38 44.05628 11.76928 30365 ft 421 kts 348°
2026-04-28 09:38 44.08524 11.76356 29794 ft 418 kts 348°
2026-04-28 09:38 44.11393 11.75788 29201 ft 415 kts 348°
2026-04-28 09:39 44.14239 11.75223 28707 ft 411 kts 348°
2026-04-28 09:39 44.17055 11.74666 28193 ft 407 kts 348°
2026-04-28 09:39 44.19849 11.74109 27685 ft 404 kts 348°
2026-04-28 09:39 44.22623 11.73558 27169 ft 401 kts 348°
2026-04-28 09:40 44.25389 11.73002 26616 ft 400 kts 348°
2026-04-28 09:40 44.28137 11.72450 26170 ft 396 kts 348°
2026-04-28 09:40 44.30864 11.71901 25702 ft 394 kts 348°
2026-04-28 09:40 44.33537 11.71363 25230 ft 392 kts 348°
2026-04-28 09:41 44.36240 11.70818 24750 ft 391 kts 348°
2026-04-28 09:41 44.38934 11.70275 24273 ft 389 kts 348°
2026-04-28 09:41 44.41605 11.69735 23803 ft 388 kts 348°
2026-04-28 09:41 44.44274 11.69196 23267 ft 387 kts 348°
2026-04-28 09:42 44.46952 11.68654 22611 ft 389 kts 348°
2026-04-28 09:42 44.49626 11.68113 22098 ft 387 kts 348°
2026-04-28 09:42 44.52283 11.67575 21670 ft 383 kts 348°
2026-04-28 09:42 44.54913 11.67041 21231 ft 380 kts 348°
2026-04-28 09:43 44.57501 11.66517 20741 ft 380 kts 348°
2026-04-28 09:43 44.60106 11.65988 20350 ft 376 kts 348°
2026-04-28 09:43 44.62688 11.65464 19932 ft 374 kts 348°
2026-04-28 09:43 44.65253 11.64942 19519 ft 372 kts 348°
2026-04-28 09:44 44.67810 11.64422 19105 ft 370 kts 348°
2026-04-28 09:44 44.70347 11.63905 18698 ft 368 kts 348°
2026-04-28 09:44 44.72879 11.63389 18281 ft 366 kts 349°
2026-04-28 09:44 44.75397 11.62875 17832 ft 364 kts 349°
2026-04-28 09:45 44.77931 11.62680 17335 ft 367 kts
2026-04-28 09:45 44.80383 11.63644 16979 ft 367 kts 24°
2026-04-28 09:45 44.82478 11.65691 16611 ft 367 kts 43°
2026-04-28 09:45 44.84015 11.68547 16235 ft 365 kts 59°
2026-04-28 09:46 44.85265 11.71605 15854 ft 362 kts 59°
2026-04-28 09:46 44.86502 11.74685 15481 ft 360 kts 60°
2026-04-28 09:46 44.87719 11.77759 15099 ft 357 kts 60°
2026-04-28 09:46 44.88919 11.80822 14727 ft 355 kts 60°
2026-04-28 09:47 44.90124 11.83858 14350 ft 353 kts 56°
2026-04-28 09:47 44.91766 11.86395 13887 ft 351 kts 35°
2026-04-28 09:47 44.93912 11.87883 13426 ft 347 kts 13°
2026-04-28 09:47 44.96283 11.88208 13047 ft 340 kts 354°
2026-04-28 09:48 44.98597 11.87684 12704 ft 335 kts 347°
2026-04-28 09:48 45.00875 11.87063 12328 ft 332 kts 347°
2026-04-28 09:48 45.03138 11.86411 11945 ft 330 kts 347°
2026-04-28 09:48 45.05373 11.85750 11586 ft 327 kts 346°
2026-04-28 09:49 45.07597 11.85077 11223 ft 325 kts 346°
2026-04-28 09:49 45.09808 11.84401 10891 ft 322 kts 346°
2026-04-28 09:49 45.11942 11.83745 10725 ft 314 kts 346°
2026-04-28 09:49 45.14049 11.83097 10593 ft 305 kts 346°
2026-04-28 09:50 45.16102 11.82463 10454 ft 297 kts 345°
2026-04-28 09:50 45.18091 11.81850 10323 ft 288 kts 346°
2026-04-28 09:50 45.20031 11.81249 10184 ft 281 kts 345°
2026-04-28 09:50 45.21918 11.80665 9988 ft 275 kts 345°
2026-04-28 09:51 45.23757 11.80095 9684 ft 274 kts 345°
2026-04-28 09:51 45.25621 11.79520 9359 ft 272 kts 346°
2026-04-28 09:51 45.27466 11.78949 9065 ft 270 kts 346°
2026-04-28 09:51 45.29294 11.78381 8780 ft 268 kts 345°
2026-04-28 09:52 45.31115 11.77815 8498 ft 266 kts 346°
2026-04-28 09:52 45.32917 11.77257 8229 ft 263 kts 346°
2026-04-28 09:52 45.34705 11.76702 7958 ft 262 kts 346°
2026-04-28 09:52 45.36466 11.76156 7683 ft 260 kts 346°
2026-04-28 09:53 45.38223 11.75610 7375 ft 257 kts 345°
2026-04-28 09:53 45.39965 11.75067 7047 ft 255 kts 347°
2026-04-28 09:53 45.41695 11.74529 6723 ft 253 kts 347°
2026-04-28 09:53 45.43387 11.74001 6437 ft 244 kts 346°
2026-04-28 09:54 45.45012 11.73495 6170 ft 234 kts 347°
2026-04-28 09:54 45.46573 11.73008 5916 ft 225 kts 347°
2026-04-28 09:54 45.48054 11.72546 5688 ft 217 kts 346°
2026-04-28 09:54 45.49509 11.72111 5424 ft 210 kts 352°
2026-04-28 09:55 45.50927 11.72358 5152 ft 203 kts 24°
2026-04-28 09:55 45.52035 11.73497 4931 ft 194 kts 52°
2026-04-28 09:55 45.52702 11.75137 4797 ft 190 kts 68°
2026-04-28 09:55 45.53226 11.76825 4839 ft 184 kts 68°
2026-04-28 09:56 45.53722 11.78489 4808 ft 184 kts 68°
2026-04-28 09:56 45.54230 11.80203 4641 ft 190 kts 69°
2026-04-28 09:56 45.54738 11.81955 4510 ft 191 kts 70°
2026-04-28 09:56 45.55233 11.83698 4433 ft 185 kts 70°
2026-04-28 09:57 45.55705 11.85378 4349 ft 180 kts 69°
2026-04-28 09:57 45.56165 11.87027 4229 ft 177 kts 69°
2026-04-28 09:57 45.56619 11.88658 4106 ft 176 kts 69°
2026-04-28 09:57 45.57068 11.90281 3989 ft 175 kts 69°
2026-04-28 09:58 45.57504 11.91880 3838 ft 175 kts 69°
2026-04-28 09:58 45.57943 11.93508 3603 ft 173 kts 69°
2026-04-28 09:58 45.58369 11.95090 3361 ft 172 kts 69°
2026-04-28 09:58 45.58796 11.96679 3122 ft 171 kts 69°
2026-04-28 09:59 45.59218 11.98262 2991 ft 170 kts 69°
2026-04-28 09:59 45.59640 11.99845 2995 ft 171 kts 69°
2026-04-28 09:59 45.60063 12.01431 3015 ft 171 kts 69°
2026-04-28 09:59 45.60485 12.03000 3016 ft 171 kts 69°
2026-04-28 10:00 45.60918 12.04590 2646 ft 176 kts 68°
2026-04-28 10:00 45.61414 12.06223 2022 ft 179 kts 66°
2026-04-28 10:00 45.61864 12.07881 1449 ft 175 kts 70°
2026-04-28 10:00 45.62218 12.09401 1284 ft 156 kts 73°
2026-04-28 10:01 45.62558 12.10933 1151 ft 162 kts 68°
2026-04-28 10:01 45.62980 12.12407 943 ft 154 kts 68°
2026-04-28 10:01 45.63372 12.13782 731 ft 147 kts 69°
2026-04-28 10:01 45.63727 12.15152 532 ft 148 kts 71°
2026-04-28 10:02 45.64087 12.16526 360 ft 146 kts 69°
2026-04-28 10:02 45.64433 12.17843 142 ft 138 kts 70°
2026-04-28 10:02 45.64758 12.19045 63 ft 118 kts 69°
2026-04-28 10:02 45.64992 12.19944 57 ft 44 kts 68°
2026-04-28 10:03 45.65116 12.20206 63 ft 22 kts 30°
2026-04-28 10:03 45.65174 12.20248 64 ft 7 kts 25°
2026-04-28 10:03 45.65264 12.20311 58 ft 22 kts 35°
2026-04-28 10:03 45.65304 12.20385 62 ft 2 kts 69°
2026-04-28 10:04 45.65313 12.20419 64 ft 5 kts 69°
2026-04-28 10:04 45.65337 12.20449 56 ft 3 kts
2026-04-28 10:04 45.65364 12.20438 62 ft 4 kts 339°
2026-04-28 10:04 45.65384 12.20428 59 ft 0 kts 342°
2026-04-28 10:05 45.65385 12.20428 64 ft 0 kts 342°